TimePST,TemperatureF,Dew PointF,Humidity,Sea Level PressureIn,VisibilityMPH,Wind Direction,Wind SpeedMPH,Gust SpeedMPH,PrecipitationIn,Events,Conditions,WindDirDegrees,DateUTC
12:08 AM,32.0,28.4,87,30.27,3.0,ENE,5.8,-,N/A,,Clear,60,2013-01-02 08:08:00
12:38 AM,32.0,28.4,87,30.26,2.5,East,6.9,-,N/A,,Clear,80,2013-01-02 08:38:00
12:58 AM,32.0,28.4,87,30.27,3.0,Calm,Calm,-,N/A,,Clear,0,2013-01-02 08:58:00
1:48 AM,32.0,28.4,87,30.26,2.5,NE,5.8,-,N/A,,Clear,50,2013-01-02 09:48:00
1:58 AM,32.9,29.3,87,30.26,3.0,NE,5.8,-,N/A,,Clear,50,2013-01-02 09:58:00
2:58 AM,33.1,27.9,81,30.25,3.0,NE,5.8,-,N/A,,Haze,50,2013-01-02 10:58:00
3:38 AM,32.0,26.6,80,30.23,7.0,WSW,3.5,-,N/A,,Clear,250,2013-01-02 11:38:00
3:48 AM,30.2,26.6,86,30.23,5.0,West,5.8,-,N/A,,Clear,280,2013-01-02 11:48:00
3:58 AM,29.1,26.1,88,30.23,8.0,West,6.9,-,N/A,,Clear,270,2013-01-02 11:58:00
4:28 AM,30.2,28.4,93,30.23,10.0,WSW,8.1,-,N/A,,Clear,250,2013-01-02 12:28:00
4:58 AM,29.1,28.0,96,30.22,10.0,WSW,3.5,-,N/A,,Clear,250,2013-01-02 12:58:00
5:18 AM,30.2,28.4,93,30.23,9.0,Calm,Calm,-,N/A,,Clear,0,2013-01-02 13:18:00
5:58 AM,29.1,26.8,91,30.24,10.0,North,8.1,-,N/A,,Clear,350,2013-01-02 13:58:00
6:58 AM,30.7,28.0,90,30.24,10.0,NE,5.8,-,N/A,,Clear,50,2013-01-02 14:58:00
7:58 AM,28.4,26.6,93,30.24,10.0,Calm,Calm,-,N/A,,Clear,0,2013-01-02 15:58:00
8:58 AM,36.0,31.1,82,30.25,10.0,North,1.2,-,N/A,,Clear,350,2013-01-02 16:58:00
9:58 AM,45.3,35.6,69,30.26,10.0,WSW,8.1,-,N/A,,Clear,240,2013-01-02 17:58:00
10:58 AM,44.6,36.3,73,30.26,10.0,WSW,9.2,-,N/A,,Clear,240,2013-01-02 18:58:00
11:58 AM,48.9,32.4,53,30.24,10.0,WSW,4.6,-,N/A,,Clear,250,2013-01-02 19:58:00
12:58 PM,51.1,29.1,43,30.20,10.0,West,2.3,-,N/A,,Clear,260,2013-01-02 20:58:00
1:58 PM,52.5,30.6,43,30.19,10.0,SW,4.6,-,N/A,,Clear,220,2013-01-02 21:58:00
2:58 PM,52.2,31.6,46,30.19,10.0,Calm,Calm,-,N/A,,Clear,0,2013-01-02 22:58:00
3:58 PM,52.5,31.3,44,30.19,10.0,Variable,1.2,-,N/A,,Clear,0,2013-01-02 23:58:00
4:58 PM,47.8,33.3,57,30.18,10.0,NNE,2.3,-,N/A,,Clear,30,2013-01-03 00:58:00
5:58 PM,41.9,32.2,68,30.17,10.0,NE,1.2,-,N/A,,Clear,40,2013-01-03 01:58:00
6:58 PM,39.6,32.2,75,30.17,10.0,Calm,Calm,-,N/A,,Clear,0,2013-01-03 02:58:00
7:58 PM,35.1,30.7,84,30.17,10.0,East,3.5,-,N/A,,Clear,90,2013-01-03 03:58:00
8:58 PM,34.9,30.6,84,30.18,10.0,West,2.3,-,N/A,,Clear,280,2013-01-03 04:58:00
9:58 PM,34.7,30.9,86,30.19,10.0,East,3.5,-,N/A,,Clear,90,2013-01-03 05:58:00
10:58 PM,32.9,30.2,90,30.20,10.0,ENE,5.8,-,N/A,,Clear,70,2013-01-03 06:58:00
11:58 PM,32.9,29.8,88,30.20,10.0,Calm,Calm,-,N/A,,Clear,0,2013-01-03 07:58:00